Weather History for KXLL - February, 2014

Change the Weather History Date:

Thursday, February 6, 2014

  Actual Average (KABE) Record (KABE)
Temperature  
Mean Temperature 24 °F 29 °F  
Max Temperature 30 °F 38 °F 63 °F (1938)
Min Temperature 19 °F 20 °F -8 °F (1996)
Degree Days  
Heating Degree Days 40 36  
Month to date heating degree days 218  
Since 1 July heating degree days 3568  
Cooling Degree Days 0 0  
Month to date cooling degree days 0  
Year to date cooling degree days 0  
Moisture  
Dew Point 11 °F    
Average Humidity 57    
Maximum Humidity 68    
Minimum Humidity 43    
Precipitation  
Precipitation 0.00 in 0.10 in 1.71 in (2004)
Month to date precipitation 0.60  
Year to date precipitation 3.63  
Snow  
Snow 0.00 in 0.40 in 12.60 in (1978)
Month to date snowfall 2.5  
Since 1 July snowfall 18.4  
Snow Depth -    
Sea Level Pressure  
Sea Level Pressure 30.25 in    
Wind  
Wind Speed 8 mph (WNW)    
Max Wind Speed 16 mph    
Max Gust Speed 25 mph    
Visibility 10 miles    
Events      
T = Trace of Precipitation, MM = Missing Value Source: NWS Daily Summary

Daily Weather History Graph

Daily Weather History Graph

Search for Another Location

Airport or City:

Trip Planner

Search our weather history database for the weather conditions in past years. The results will help you decide how hot, cold, wet, or windy it might be!

Date:

Astronomy

Feb. 06, 2014 Rise Set
Actual Time 7:06 AM EST 5:26 PM EST
Civil Twilight 6:37 AM EST 5:54 PM EST
Nautical Twilight 6:05 AM EST 6:27 PM EST
Astronomical Twilight 5:33 AM EST 6:58 PM EST
Moon 10:56 AM EST (2/6) 12:19 AM EST (2/6)
Length of Visible Light 11h 16m
Length of Day
10h 19m
Waxing Crescent, 49% of the Moon is Illuminated
Feb 6
Waxing Crescent
Feb 6
First Quarter
Feb 14
Full
Feb 22
Last Quarter
Mar 1
New

Hourly Weather History & Observations

Time (EST) Temp. Windchill Dew Point Humidity Pressure Visibility Wind Dir Wind Speed Gust Speed Precip Events Conditions
12:15 AM 28.4 °F 18.0 °F 15.8 °F 59% 30.07 in 10.0 mi NNW 12.7 mph 25.3 mph N/A   Overcast
12:35 AM 28.4 °F 24.6 °F 17.6 °F 64% 30.09 in 10.0 mi NW 3.5 mph - N/A   Overcast
12:55 AM 28.4 °F 20.4 °F 15.8 °F 59% 30.10 in 10.0 mi NW 8.1 mph - N/A   Overcast
1:15 AM 28.4 °F 18.5 °F 14.0 °F 55% 30.11 in 10.0 mi North 11.5 mph 20.7 mph N/A   Overcast
1:35 AM 26.6 °F 14.7 °F 14.0 °F 59% 30.14 in 10.0 mi NNW 15.0 mph 21.9 mph N/A   Overcast
1:55 AM 26.6 °F 15.2 °F 12.2 °F 55% 30.14 in 10.0 mi North 13.8 mph 18.4 mph N/A   Overcast
2:15 AM 26.6 °F 19.1 °F 12.2 °F 55% 30.15 in 10.0 mi NNW 6.9 mph - N/A   Overcast
2:35 AM 24.8 °F 14.0 °F 12.2 °F 59% 30.16 in 10.0 mi North 11.5 mph 17.3 mph N/A   Scattered Clouds
2:55 AM 24.8 °F 13.4 °F 12.2 °F 59% 30.16 in 10.0 mi NNW 12.7 mph 20.7 mph N/A   Clear
3:15 AM 23.0 °F 9.6 °F 10.4 °F 59% 30.18 in 10.0 mi NNW 16.1 mph 21.9 mph N/A   Scattered Clouds
3:35 AM 23.0 °F 11.7 °F 10.4 °F 59% 30.19 in 10.0 mi NNW 11.5 mph 20.7 mph N/A   Clear
3:55 AM 23.0 °F 13.1 °F 10.4 °F 59% 30.20 in 10.0 mi NNW 9.2 mph - N/A   Clear
4:15 AM 23.0 °F 13.9 °F 10.4 °F 59% 30.21 in 10.0 mi NW 8.1 mph - N/A   Clear
4:35 AM 23.0 °F 13.1 °F 10.4 °F 59% 30.21 in 10.0 mi NW 9.2 mph - N/A   Clear
4:55 AM 21.2 °F 14.9 °F 10.4 °F 63% 30.22 in 10.0 mi NNW 4.6 mph - N/A   Clear
5:15 AM 21.2 °F 12.6 °F 10.4 °F 63% 30.23 in 10.0 mi NNW 6.9 mph - N/A   Clear
5:35 AM 21.2 °F 12.6 °F 10.4 °F 63% 30.24 in 10.0 mi NNW 6.9 mph - N/A   Clear
5:55 AM 21.2 °F 11.7 °F 10.4 °F 63% 30.24 in 10.0 mi NNW 8.1 mph - N/A   Clear
6:15 AM 21.2 °F 12.6 °F 8.6 °F 58% 30.25 in 10.0 mi NNW 6.9 mph - N/A   Clear
6:35 AM 21.2 °F 11.7 °F 8.6 °F 58% 30.26 in 10.0 mi North 8.1 mph - N/A   Clear
6:55 AM 21.2 °F 12.6 °F 8.6 °F 58% 30.28 in 10.0 mi NNW 6.9 mph - N/A   Clear
7:15 AM 21.2 °F 16.4 °F 8.6 °F 58% 30.29 in 10.0 mi North 3.5 mph - N/A   Clear
7:35 AM 19.4 °F 11.5 °F 8.6 °F 63% 30.30 in 10.0 mi North 5.8 mph - N/A   Clear
7:55 AM 19.4 °F 12.8 °F 8.6 °F 63% 30.31 in 10.0 mi North 4.6 mph - N/A   Clear
8:15 AM 21.2 °F 13.6 °F 8.6 °F 58% 30.32 in 10.0 mi NNW 5.8 mph - N/A   Clear
8:35 AM 21.2 °F 14.9 °F 8.6 °F 58% 30.33 in 10.0 mi North 4.6 mph - N/A   Clear
8:55 AM 21.2 °F 12.6 °F 8.6 °F 58% 30.32 in 10.0 mi North 6.9 mph - N/A   Clear
9:15 AM 21.2 °F 11.7 °F 8.6 °F 58% 30.32 in 10.0 mi NNW 8.1 mph - N/A   Clear
9:35 AM 21.2 °F 11.7 °F 8.6 °F 58% 30.32 in 10.0 mi NNW 8.1 mph - N/A   Clear
9:55 AM 21.2 °F 11.7 °F 8.6 °F 58% 30.32 in 10.0 mi NNW 8.1 mph - N/A   Clear
10:15 AM 23.0 °F 13.1 °F 8.6 °F 54% 30.32 in 10.0 mi NW 9.2 mph - N/A   Clear
10:35 AM 23.0 °F 13.9 °F 8.6 °F 54% 30.32 in 10.0 mi WNW 8.1 mph - N/A   Clear
10:55 AM 23.0 °F 13.1 °F 8.6 °F 54% 30.32 in 10.0 mi NNW 9.2 mph - N/A   Clear
11:15 AM 24.8 °F 16.9 °F 8.6 °F 50% 30.31 in 10.0 mi NW 6.9 mph - N/A   Clear
11:35 AM 26.6 °F 20.0 °F 10.4 °F 51% 30.31 in 10.0 mi NW 5.8 mph - N/A   Clear
11:55 AM 26.6 °F 21.2 °F 10.4 °F 51% 30.30 in 10.0 mi West 4.6 mph - N/A   Clear
12:15 PM 26.6 °F 19.1 °F 8.6 °F 47% 30.29 in 10.0 mi WNW 6.9 mph - N/A   Clear
12:35 PM 28.4 °F 22.2 °F 8.6 °F 43% 30.29 in 10.0 mi WNW 5.8 mph - N/A   Clear
12:55 PM 28.4 °F 21.2 °F 10.4 °F 47% 30.28 in 10.0 mi West 6.9 mph - N/A   Clear
1:15 PM 28.4 °F 19.7 °F 10.4 °F 47% 30.27 in 10.0 mi NNW 9.2 mph - N/A   Clear
1:35 PM 28.4 °F 22.2 °F 10.4 °F 47% 30.27 in 10.0 mi NW 5.8 mph - N/A   Clear
1:55 PM 28.4 °F 22.2 °F 10.4 °F 47% 30.28 in 10.0 mi WNW 5.8 mph - N/A   Clear
2:15 PM 30.2 °F 23.4 °F 10.4 °F 44% 30.27 in 10.0 mi WNW 6.9 mph - N/A   Clear
2:35 PM 30.2 °F 26.7 °F 10.4 °F 44% 30.27 in 10.0 mi WNW 3.5 mph - N/A   Clear
2:55 PM 30.2 °F 24.3 °F 10.4 °F 44% 30.26 in 10.0 mi West 5.8 mph - N/A   Clear
3:15 PM 30.2 °F 25.4 °F 10.4 °F 44% 30.26 in 10.0 mi West 4.6 mph - N/A   Clear
3:35 PM 30.2 °F 24.3 °F 10.4 °F 44% 30.26 in 10.0 mi West 5.8 mph - N/A   Clear
3:55 PM 30.2 °F 24.3 °F 10.4 °F 44% 30.26 in 10.0 mi NW 5.8 mph - N/A   Clear
4:15 PM 30.2 °F 26.7 °F 10.4 °F 44% 30.26 in 10.0 mi West 3.5 mph - N/A   Clear
4:35 PM 30.2 °F 24.3 °F 12.2 °F 47% 30.26 in 10.0 mi SW 5.8 mph - N/A   Clear
4:55 PM 30.2 °F 24.3 °F 12.2 °F 47% 30.26 in 10.0 mi SW 5.8 mph - N/A   Clear
5:15 PM 28.4 °F 21.2 °F 12.2 °F 51% 30.26 in 10.0 mi SW 6.9 mph - N/A   Clear
5:35 PM 28.4 °F 22.2 °F 12.2 °F 51% 30.27 in 10.0 mi SW 5.8 mph - N/A   Clear
5:55 PM 28.4 °F 23.3 °F 12.2 °F 51% 30.27 in 10.0 mi SW 4.6 mph - N/A   Clear
6:15 PM 28.4 °F 23.3 °F 12.2 °F 51% 30.27 in 10.0 mi SW 4.6 mph - N/A   Clear
6:35 PM 26.6 °F 21.2 °F 14.0 °F 59% 30.27 in 10.0 mi SW 4.6 mph - N/A   Clear
6:55 PM 26.6 °F 22.6 °F 14.0 °F 59% 30.27 in 10.0 mi SSW 3.5 mph - N/A   Clear
7:15 PM 26.6 °F 22.6 °F 14.0 °F 59% 30.26 in 10.0 mi SSW 3.5 mph - N/A   Clear
7:35 PM 26.6 °F 21.2 °F 14.0 °F 59% 30.26 in 10.0 mi SSW 4.6 mph - N/A   Clear
7:55 PM 24.8 °F 19.1 °F 14.0 °F 64% 30.26 in 10.0 mi SSW 4.6 mph - N/A   Clear
8:15 PM 24.8 °F 19.1 °F 14.0 °F 64% 30.26 in 10.0 mi SSW 4.6 mph - N/A   Clear
8:35 PM 24.8 °F 19.1 °F 14.0 °F 64% 30.26 in 10.0 mi SSW 4.6 mph - N/A   Clear
8:55 PM 23.0 °F 18.4 °F 14.0 °F 68% 30.27 in 10.0 mi SSW 3.5 mph - N/A   Clear
9:15 PM 23.0 °F 18.4 °F 14.0 °F 68% 30.27 in 10.0 mi SSW 3.5 mph - N/A   Clear
9:35 PM 23.0 °F 18.4 °F 14.0 °F 68% 30.27 in 10.0 mi SW 3.5 mph - N/A   Clear
9:55 PM 23.0 °F 15.8 °F 14.0 °F 68% 30.28 in 10.0 mi WSW 5.8 mph - N/A   Clear
10:15 PM 23.0 °F 14.7 °F 14.0 °F 68% 30.28 in 10.0 mi SW 6.9 mph - N/A   Clear
10:35 PM 23.0 °F 15.8 °F 14.0 °F 68% 30.28 in 10.0 mi WSW 5.8 mph - N/A   Clear
10:55 PM 23.0 °F 13.9 °F 14.0 °F 68% 30.28 in 10.0 mi SW 8.1 mph - N/A   Clear
11:15 PM 24.8 °F 16.9 °F 14.0 °F 64% 30.29 in 10.0 mi WSW 6.9 mph - N/A   Clear
11:35 PM 23.0 °F 14.7 °F 14.0 °F 68% 30.28 in 10.0 mi SW 6.9 mph - N/A   Clear
11:55 PM 23.0 °F 14.7 °F 14.0 °F 68% 30.28 in 10.0 mi SW 6.9 mph - N/A   Clear